Location: Vancouver
(49.2500°N, 123.1330°W)
Time: 01:49:09
(UTC-07:00)

A-11 Canister half - Visible Passes

Search period start: 27 August 2014 00:00
Search period end: 06 September 2014 00:00
Orbit: 1526 x 1684 km, 47.3° (Epoch: 24 August)

Date Brightness Start Highest point End Pass type
(mag) Time Alt. Az. Time Alt. Az. Time Alt. Az.
27 Aug 10.0 01:56:41 29° SE 01:56:41 29° SE 02:04:31 10° E visible
27 Aug 9.2 03:54:59 31° SW 04:00:14 63° SSE 04:10:10 10° ENE visible
28 Aug 10.1 01:36:10 27° ESE 01:36:10 27° ESE 01:42:52 10° E visible
28 Aug 9.2 03:34:28 37° SW 03:38:43 61° SSE 03:48:36 10° ENE visible
28 Aug 9.2 05:33:33 10° W 05:43:34 81° S 05:53:46 10° E visible
29 Aug 10.2 01:15:39 24° ESE 01:15:39 24° ESE 01:21:13 10° E visible
29 Aug 9.2 03:13:56 43° SSW 03:17:11 60° SSE 03:27:02 10° ENE visible
29 Aug 9.2 05:12:13 11° W 05:22:01 81° S 05:32:12 10° E visible
30 Aug 10.3 00:55:06 21° ESE 00:55:06 21° ESE 00:59:33 10° E visible
30 Aug 9.1 02:53:23 49° SSW 02:55:40 58° SSE 03:05:28 10° ENE visible
30 Aug 9.1 04:51:41 15° W 05:00:27 81° S 05:10:38 10° E visible
31 Aug 10.5 00:34:33 18° E 00:34:33 18° E 00:37:53 10° E visible
31 Aug 9.1 02:32:50 53° S 02:34:10 57° SSE 02:43:54 10° ENE visible
31 Aug 9.1 04:31:07 19° W 04:38:54 81° S 04:49:05 10° E visible
01 Sep 10.6 00:13:58 15° E 00:13:58 15° E 00:16:11 10° E visible
01 Sep 9.1 02:12:16 55° SSE 02:12:39 55° SSE 02:22:20 10° ENE visible
01 Sep 9.1 04:10:33 24° WSW 04:17:21 80° S 04:27:31 10° E visible
01 Sep 10.7 23:53:24 13° E 23:53:24 13° E 23:54:29 10° E visible
02 Sep 9.2 01:51:41 53° SE 01:51:41 53° SE 02:00:46 10° ENE visible
02 Sep 9.0 03:49:58 29° WSW 03:55:48 80° S 04:05:57 10° E visible
02 Sep 9.2 05:50:53 10° W 06:00:49 71° SSW 06:10:54 10° ESE visible
03 Sep 9.3 01:31:07 48° ESE 01:31:07 48° ESE 01:39:11 10° ENE visible
03 Sep 9.0 03:29:24 36° WSW 03:34:15 79° S 03:44:23 10° E visible
03 Sep 9.2 05:29:21 10° W 05:39:17 72° SSW 05:49:22 10° ESE visible
04 Sep 9.5 01:10:32 43° ESE 01:10:32 43° ESE 01:17:37 10° ENE visible
04 Sep 9.0 03:08:49 43° WSW 03:12:42 79° S 03:22:49 10° E visible
04 Sep 9.1 05:07:49 10° W 05:17:44 73° SSW 05:27:50 10° ESE visible
05 Sep 9.7 00:49:58 37° ESE 00:49:58 37° ESE 00:56:02 10° ENE visible
05 Sep 8.9 02:48:15 52° WSW 02:51:09 78° S 03:01:15 10° E visible
05 Sep 9.1 04:46:33 11° W 04:56:11 74° SSW 05:06:18 10° ESE visible
